FW1341 Weather Reports


Display with metric or nautical units.
time (UTC)temp
F
wind
direction
speed
MPH
gust
MPH
rain 1hr
in
rain 24hr
in
rain mn
in
humidity
%
barometer
mb
20260904215746 84 221 0.0 2.0 0.01 0.02 0.02 77 1008.7
20260904215240 84 205 0.0 2.0 0.01 0.02 0.02 78 1008.8
20260904214735 84 228 0.0 3.0 0.02 0.02 0.02 77 1009.0
20260904214230 84 236 1.0 3.0 0.02 0.02 0.02 77 1008.9
20260904213731 84 219 0.0 2.0 0.02 0.02 0.02 77 1008.9
20260904213230 83 245 0.0 1.0 0.02 0.02 0.02 77 1008.9
20260904212731 83 0 0.0 0.0 0.02 0.02 0.02 78 1008.9
20260904212227 84 0 0.0 1.0 0.02 0.02 0.02 75 1009.0
20260904211226 84 351 0.0 2.0 0.02 0.02 0.02 75 1009.1
20260904210727 85 30 0.0 2.0 0.02 0.02 0.02 74 1009.2
20260904210222 85 238 0.0 3.0 0.01 0.01 0.01 71 1009.4
20260904205221 87 352 2.0 8.0 0.01 0.01 0.01 67 1009.1
20260904204721 88 20 3.0 8.0 0.00 0.00 0.00 63 1009.3
20260904204221 89 25 2.0 7.0 0.00 0.00 0.00 61 1009.3
20260904203722 89 5 2.0 6.0 0.00 0.00 0.00 61 1009.1
20260904203218 89 58 3.0 7.0 0.00 0.00 0.00 61 1009.4
20260904202719 89 77 2.0 7.0 0.00 0.00 0.00 60 1009.6
20260904202217 89 321 2.0 8.0 0.00 0.00 0.00 60 1009.4
20260904201718 89 30 2.0 8.0 0.00 0.00 0.00 60 1009.3
20260904200214 90 15 2.0 7.0 0.00 0.00 0.00 58 1009.1
20260904195214 91 24 1.0 4.0 0.00 0.00 0.00 57 1009.0
20260904194714 91 281 3.0 10.0 0.00 0.00 0.00 57 1008.9
20260904194213 91 58 4.0 10.0 0.00 0.00 0.00 56 1009.1
20260904193715 91 333 3.0 10.0 0.00 0.00 0.00 55 1009.2
20260904193210 92 16 2.0 10.0 0.00 0.00 0.00 55 1009.1
20260904192711 92 321 3.0 10.0 0.00 0.00 0.00 55 1009.2
20260904191711 92 358 1.0 6.0 0.00 0.00 0.00 54 1009.0
20260904191211 93 38 2.0 8.0 0.00 0.00 0.00 53 1009.1
20260904190205 92 336 2.0 8.0 0.00 0.00 0.00 52 1009.2
20260904185707 91 206 3.0 8.0 0.00 0.00 0.00 54 1009.4
20260904184706 92 297 3.0 9.0 0.00 0.00 0.00 53 1009.7
20260904184207 91 341 3.0 9.0 0.00 0.00 0.00 54 1009.8
20260904182702 92 304 2.0 10.0 0.00 0.00 0.00 54 1009.9
20260904182202 92 274 2.0 7.0 0.00 0.00 0.00 54 1009.9
20260904181702 91 321 3.0 9.0 0.00 0.00 0.00 55 1010.1
20260904181202 91 264 3.0 9.0 0.00 0.00 0.00 56 1010.0
20260904180703 91 299 2.0 6.0 0.00 0.00 0.00 55 1010.0
20260904180158 91 345 2.0 7.0 0.00 0.00 0.00 55 1010.0
20260904175659 91 13 3.0 9.0 0.00 0.00 0.00 55 1010.0
20260904174658 91 224 2.0 8.0 0.00 0.00 0.00 55 1010.0
20260904173659 91 321 2.0 8.0 0.00 0.00 0.00 56 1010.1
20260904173154 91 335 3.0 8.0 0.00 0.00 0.00 57 1010.1
20260904172655 91 316 2.0 7.0 0.00 0.00 0.00 56 1010.2
20260904172153 91 117 1.0 7.0 0.00 0.00 0.00 57 1010.3
20260904171655 90 183 2.0 6.0 0.00 0.00 0.00 57 1010.3
20260904171154 89 318 2.0 7.0 0.00 0.00 0.00 58 1010.4
20260904170655 90 17 1.0 7.0 0.00 0.00 0.00 57 1010.3
20260904165650 89 8 2.0 10.0 0.00 0.00 0.00 59 1010.4
20260904164152 89 224 2.0 7.0 0.00 0.00 0.00 60 1010.6
20260904163652 88 319 2.0 7.0 0.00 0.00 0.00 61 1010.7
20260904163148 88 248 3.0 9.0 0.00 0.00 0.00 62 1010.8
20260904162647 87 330 3.0 9.0 0.00 0.00 0.00 62 1010.9
20260904162145 88 320 2.0 9.0 0.00 0.00 0.00 60 1011.0
20260904161647 88 113 2.0 8.0 0.00 0.00 0.00 60 1011.0
20260904161147 87 346 3.0 8.0 0.00 0.00 0.00 61 1011.0
20260904160647 87 27 2.0 8.0 0.00 0.00 0.00 62 1011.1
20260904160142 87 27 2.0 8.0 0.00 0.00 0.00 63 1011.0
20260904155643 87 319 2.0 7.0 0.00 0.00 0.00 63 1011.0
20260904155142 87 314 1.0 6.0 0.00 0.00 0.00 64 1011.0
20260904154142 85 18 2.0 10.0 0.00 0.00 0.00 66 1011.0
20260904153644 85 1 3.0 10.0 0.00 0.00 0.00 67 1011.1
20260904153138 85 239 3.0 7.0 0.00 0.00 0.00 67 1011.0
20260904152638 85 332 3.0 9.0 0.00 0.00 0.00 67 1011.1
20260904152137 85 12 3.0 9.0 0.00 0.00 0.00 68 1011.1
20260904151638 85 22 2.0 8.0 0.00 0.00 0.00 68 1011.2
20260904151139 85 43 3.0 10.0 0.00 0.00 0.00 68 1011.3
20260904150639 84 311 3.0 10.0 0.00 0.00 0.00 69 1011.4
20260904143637 82 268 3.0 10.0 0.00 0.00 0.00 73 1011.6
20260904143136 82 329 2.0 10.0 0.00 0.00 0.00 73 1011.4
20260904142635 82 325 1.0 10.0 0.00 0.00 0.00 72 1011.5
20260904142133 82 333 1.0 7.0 0.00 0.00 0.00 73 1011.4
20260904141634 81 27 2.0 8.0 0.00 0.00 0.00 73 1011.5
20260904141130 81 295 3.0 8.0 0.00 0.00 0.00 73 1011.5
20260904140630 81 316 3.0 8.0 0.00 0.00 0.00 73 1011.7
20260904140129 81 13 2.0 8.0 0.00 0.00 0.00 73 1011.5
20260904135629 81 301 3.0 8.0 0.00 0.00 0.00 74 1011.4
20260904135129 81 325 3.0 8.0 0.00 0.00 0.00 74 1011.4
20260904134625 81 13 1.0 8.0 0.00 0.00 0.00 75 1011.5
20260904134125 81 274 0.0 5.0 0.00 0.00 0.00 76 1011.4
20260904133623 80 214 1.0 5.0 0.00 0.00 0.00 78 1011.4
20260904133121 80 245 1.0 5.0 0.00 0.00 0.00 79 1011.4
20260904132620 79 249 1.0 5.0 0.00 0.00 0.00 80 1011.3
20260904132119 79 264 1.0 5.0 0.00 0.00 0.00 80 1011.4
20260904131617 78 285 1.0 5.0 0.00 0.00 0.00 80 1011.3
20260904130619 78 240 1.0 4.0 0.00 0.00 0.00 82 1011.5
20260904130115 78 312 2.0 5.0 0.00 0.00 0.00 82 1011.6
20260904125613 77 354 2.0 5.0 0.00 0.00 0.00 83 1011.5
20260904124611 77 304 1.0 4.0 0.00 0.00 0.00 83 1011.5
20260904124110 77 326 1.0 4.0 0.00 0.00 0.00 84 1011.6
20260904123610 77 310 0.0 4.0 0.00 0.00 0.00 85 1011.6
20260904123109 76 340 0.0 4.0 0.00 0.00 0.00 85 1011.5
20260904122609 76 306 1.0 4.0 0.00 0.00 0.00 86 1011.2
20260904122105 76 263 1.0 3.0 0.00 0.00 0.00 85 1011.4
20260904121601 76 330 1.0 0.0 0.00 0.00 0.00 87 1011.4
20260904034822 83 292 6.0 43.0 0.04 0.04 0.08 74 1013.7
20260904034323 86 334 2.0 8.0 0.00 0.00 0.00 77 1011.6
20260904033823 86 10 2.0 6.0 0.00 0.00 0.00 77 1010.8
20260904033323 86 302 2.0 6.0 0.00 0.00 0.00 78 1010.3
20260904032321 85 207 1.0 3.0 0.00 0.00 0.00 78 1010.0
20260904031819 85 215 1.0 3.0 0.00 0.00 0.00 78 1010.0
20260904031318 86 290 0.0 2.0 0.00 0.00 0.00 78 1009.9
20260904030817 86 302 0.0 2.0 0.00 0.00 0.00 78 1009.8
20260904030318 86 217 1.0 4.0 0.00 0.00 0.00 77 1010.0
20260904025815 86 252 1.0 5.0 0.00 0.00 0.00 78 1010.1
20260904025316 86 282 1.0 5.0 0.00 0.00 0.00 77 1010.1
20260904024810 86 250 1.0 4.0 0.00 0.00 0.00 77 1010.3
20260904024310 86 278 1.0 6.0 0.00 0.00 0.00 78 1010.4
20260904022809 86 235 1.0 5.0 0.00 0.00 0.00 78 1010.6
20260904022309 86 219 1.0 5.0 0.00 0.00 0.00 78 1010.5
20260904021803 86 208 0.0 4.0 0.00 0.00 0.00 78 1010.3
20260904020258 86 246 1.0 4.0 0.00 0.00 0.00 77 1010.5
20260904015250 86 188 1.0 3.0 0.00 0.00 0.00 76 1010.5
20260904014751 86 238 1.0 4.0 0.00 0.00 0.00 76 1010.5
20260904014253 86 191 2.0 5.0 0.00 0.00 0.00 76 1010.5
20260904013751 86 187 2.0 5.0 0.00 0.00 0.00 75 1010.5
20260904013251 87 205 2.0 5.0 0.00 0.00 0.00 75 1010.4
20260904012751 87 211 2.0 6.0 0.00 0.00 0.00 75 1010.5
20260904011247 87 212 2.0 5.0 0.00 0.00 0.00 75 1010.4
20260904010747 87 259 2.0 5.0 0.00 0.00 0.00 75 1010.4
20260904010245 87 217 1.0 4.0 0.00 0.00 0.00 76 1010.5
20260904005746 87 181 1.0 4.0 0.00 0.00 0.00 76 1010.5
20260904005241 87 210 2.0 4.0 0.00 0.00 0.00 76 1010.6
20260904004741 87 156 2.0 4.0 0.00 0.00 0.00 76 1010.7
20260904004240 87 200 1.0 4.0 0.00 0.00 0.00 76 1010.8
20260904003239 87 222 2.0 6.0 0.00 0.00 0.00 75 1011.1
20260904002739 87 214 2.0 6.0 0.00 0.00 0.00 75 1011.1
20260904002236 87 203 1.0 4.0 0.00 0.00 0.00 75 1011.0
20260904001736 88 172 1.0 4.0 0.00 0.00 0.00 74 1011.0
20260904001236 88 283 1.0 4.0 0.00 0.00 0.00 74 1011.1
20260904000735 88 249 1.0 6.0 0.00 0.00 0.00 74 1011.1
20260904000233 88 207 1.0 6.0 0.00 0.00 0.00 74 1011.0
20260903235734 88 219 1.0 5.0 0.00 0.00 0.00 74 1010.7
20260903235226 88 191 1.0 3.0 0.00 0.00 0.00 74 1010.8
20260903234725 88 230 1.0 5.0 0.00 0.00 0.00 73 1010.7
20260903234224 88 197 2.0 6.0 0.00 0.00 0.00 73 1010.5
20260903233721 88 186 1.0 6.0 0.00 0.00 0.00 73 1010.4
20260903233222 88 228 1.0 4.0 0.00 0.00 0.00 72 1010.4
20260903232716 88 215 2.0 5.0 0.00 0.00 0.00 72 1010.3
20260903232212 88 282 2.0 6.0 0.00 0.00 0.00 72 1010.1
20260903231210 89 199 3.0 6.0 0.00 0.00 0.00 71 1010.3
20260903230708 89 210 2.0 6.0 0.00 0.00 0.00 70 1010.2
20260903225703 90 256 2.0 7.0 0.00 0.00 0.00 69 1010.1
20260903225203 90 197 3.0 6.0 0.00 0.00 0.00 69 1010.1
20260903224703 90 190 3.0 7.0 0.00 0.00 0.00 68 1010.1
20260903223703 91 195 2.0 6.0 0.00 0.00 0.00 66 1009.9
20260903223157 92 229 2.0 9.0 0.00 0.00 0.00 66 1010.0
20260903222656 92 210 3.0 10.0 0.00 0.00 0.00 66 1010.0
20260903222158 92 207 3.0 10.0 0.00 0.00 0.00 65 1009.9
20260903221657 92 207 2.0 8.0 0.00 0.00 0.00 64 1009.9
20260903221157 92 271 3.0 7.0 0.00 0.00 0.00 64 1009.9
20260903220656 92 214 3.0 8.0 0.00 0.00 0.00 64 1009.9